Simultaneous Nadir Overpasses (SNOs) Predictions

Prediction of SNOs between LANDSAT-8 and NPP Satellite Orbit:

Table of predicted SNOs for the next 14.0 days since TLE Epoch: 7/19/2014
Index Date (LANDSAT-8) Time (LANDSAT-8) Lat,Lon (LANDSAT-8) SZA (LANDSAT-8 ) Date (NPP) Time (NPP) Lat,Lon (NPP) SZA (NPP ) Distance(km) Time Diff (sec)
1 07/19/2014 17:28:23 -71.06, 95.72 129.76 07/19/2014 17:27:12 -71.11, 94.53 129.66 43.10 71
2 07/19/2014 18:17:56 70.64, -97.30 49.84 07/19/2014 18:17:49 70.63, -97.36 49.84 2.31 7
3 07/19/2014 19:07:26 -70.52, 70.17 130.26 07/19/2014 19:08:31 -70.54, 70.11 130.25 2.60 65
4 07/22/2014 09:44:58 -70.68,-148.99 129.61 07/22/2014 09:44:03 -70.70,-149.01 129.58 2.01 55
5 07/22/2014 10:34:25 70.58, 18.50 50.30 07/22/2014 10:34:47 70.58, 18.49 50.31 0.88 22
6 07/22/2014 11:24:08 -69.76,-175.05 130.47 07/22/2014 11:25:15 -69.75,-172.90 130.55 82.54 67
7 07/25/2014 01:11:43 71.54, 160.63 51.77 07/25/2014 01:10:37 71.63, 157.82 51.96 99.15 66
8 07/25/2014 02:01:27 -70.67, -33.12 129.06 07/25/2014 02:01:02 -70.65, -33.16 129.08 2.83 25
9 07/25/2014 02:50:54 70.57, 134.37 50.85 07/25/2014 02:51:46 70.54, 134.33 50.82 3.35 52
10 07/27/2014 17:28:27 70.71, -84.82 51.56 07/27/2014 17:27:19 70.71, -84.80 51.57 0.69 68
11 07/27/2014 18:17:57 -70.60, 82.65 128.54 07/27/2014 18:18:01 -70.61, 82.68 128.53 1.32 4
12 07/27/2014 19:07:29 70.22,-110.26 51.11 07/27/2014 19:08:40 70.23,-109.41 51.09 32.06 71
13 07/30/2014 09:44:56 70.67, 31.02
